Regional Weather Roundup
Issued by NWS

Home | Current Version | Previous Version | Text Only | Print | Product List | Glossary Off
Versions: 1 2 3 4 5 6 7 8 9 10 11 12 13 14 15 16 17 18 19 20 21 22 23 24 25 26 27 28 29 30 31 32 33 34 35 36 37 38 39 40 41 42 43 44 45 46 47 48 49 50

000
ASUS43 KTOP 281208
RWRKS

WEATHER ROUNDUP FOR KANSAS
NATIONAL WEATHER SERVICE GOODLAND KS
700 AM CDT THU AUG 28 2014

NOTE:  "FAIR" INDICATES FEW OR NO CLOUDS BELOW 12,000 FEET WITH NO
SIGNIFICANT WEATHER AND/OR OBSTRUCTIONS TO VISIBILITY.

KSZ001>006-013>018-027>032-041>047-281300-
NORTHWEST KANSAS

CITY           SKY/WX    TMP DP  RH WIND       PRES   REMARKS
GOODLAND       CLOUDY    58  58 100 W10       30.02R FOG
6HR MIN TEMP:  56; 6HR MAX TEMP:  69; 6HR PCP:  0.09;

HAYS           PTCLDY    70  63  78 NE7       29.93F
HILL CITY      PTCLDY    65  64  97 E6        29.92S
6HR MIN TEMP:  65; 6HR MAX TEMP:  68; 6HR PCP:  0.17;

RUSSELL        MOCLDY    71  66  84 N3        29.93F
6HR MIN TEMP:  69; 6HR MAX TEMP:  74;

$$

KSZ061>065-074>080-084>089-281300-
SOUTHWEST KANSAS

CITY           SKY/WX    TMP DP  RH WIND       PRES   REMARKS
DODGE CITY     PTCLDY    68  63  84 S7        29.94S
6HR MIN TEMP:  68; 6HR MAX TEMP:  73;

ELKHART          N/A     63  57  81 NW8         N/A
GARDEN CITY    PTCLDY    63  61  93 CALM      29.93S
6HR MIN TEMP:  63; 6HR MAX TEMP:  69;

GREAT BEND     CLOUDY    75  64  69 W6        29.94R
LIBERAL        PTCLDY    66  61  82 SW10      29.96S
PRATT          CLOUDY    73  64  73 S16       29.95S
$$

KSZ066>073-081>083-090>101-281300-
SOUTHEAST KANSAS

CITY           SKY/WX    TMP DP  RH WIND       PRES   REMARKS
CHANUTE        CLEAR     71  67  87 S7        29.99R
6HR MIN TEMP:  71; 6HR MAX TEMP:  78;

COFFEYVILLE    CLEAR     72  69  90 S6        29.98R
6HR MIN TEMP:  72; 6HR MAX TEMP:  80;

HUTCHINSON     RAIN      73  68  84 S9G21     29.96S
6HR MIN TEMP:  73; 6HR MAX TEMP:  82;

MEDICINE LODGE   N/A     74  69  85 SE10      29.94S
NEWTON         CLOUDY    77  61  57 S14       30.00R
PARSONS        CLEAR     73  68  84 S3        29.99S
6HR MIN TEMP:  73; 6HR MAX TEMP:  79;

WICHITA INTL   CLOUDY    77  65  66 S8        29.96S
6HR MIN TEMP:  77; 6HR MAX TEMP:  80;

WICHITA JABRA  MOCLDY    76  65  68 S7        29.97S
6HR MIN TEMP:  76; 6HR MAX TEMP:  81;

WICHITA MCCONL MOCLDY    76  67  75 SE8       29.97S
WINFIELD       PTCLDY    73  66  78 CALM      29.98S
6HR MIN TEMP:  72; 6HR MAX TEMP:  79;

$$

KSZ007>012-019>026-033>040-048>060-102>105-281300-
NORTHEAST KANSAS

CITY           SKY/WX    TMP DP  RH WIND       PRES   REMARKS
CONCORDIA      LGT RAIN  71  69  93 W9        29.94R
6HR MIN TEMP:  71; 6HR MAX TEMP:  74; 6HR PCP:  0.19;

EMPORIA        CLOUDY    73  68  84 S9        29.97R
6HR MIN TEMP:  73; 6HR MAX TEMP:  79;

LAWRENCE       CLOUDY    78  71  79 SE3       29.96S
6HR MIN TEMP:  75; 6HR MAX TEMP:  81;

MANHATTAN      CLOUDY    79  67  66 SW7       29.94R
6HR MIN TEMP:  78; 6HR MAX TEMP:  80;

MARYSVILLE     TSTM      72  70  94 SE3       29.94F
OLATHE IND     CLOUDY    74  71  91 S7        29.98S
6HR MIN TEMP:  74; 6HR MAX TEMP:  77;

OLATHE EXE     CLOUDY    73  71  93 SE7       29.97S
6HR MIN TEMP:  73; 6HR MAX TEMP:  77;

SALINA         RAIN      73  69  87 SW7       29.96R
6HR MIN TEMP:  73; 6HR MAX TEMP:  80; 6HR PCP:  0.05;

TOPEKA BILLARD CLOUDY    78  70  76 S6        29.95R
6HR MIN TEMP:  77; 6HR MAX TEMP:  80; 6HR PCP: TRACE;

TOPEKA FORBES  CLOUDY    75  69  81 SE6       29.96R
6HR MIN TEMP:  75; 6HR MAX TEMP:  78; 6HR PCP: TRACE;

$$


USA.gov is the U.S. government's official web portal to all federal, state and local government web resources and services.